Weather History for El Centro, CA

Change the Weather History Date:

Sunday, August 25, 2013

  Actual Average Record
Temperature  
Mean Temperature 81 °F -  
Max Temperature 89 °F 103 °F 113 °F (2011)
Min Temperature 75 °F 79 °F 73 °F (2004)
Cooling Degree Days 16    
Growing Degree Days 31 (Base 50)    
Moisture  
Dew Point 72 °F    
Average Humidity 77    
Maximum Humidity 89    
Minimum Humidity 61    
Precipitation  
Precipitation 0.00 in - - ()
Sea Level Pressure  
Sea Level Pressure 29.92 in    
Wind  
Wind Speed 5 mph (NNE)    
Max Wind Speed 29 mph    
Max Gust Speed 34 mph    
Visibility 9 miles    
Events Rain    
Averages and records for this station are not official NWS values.
T = Trace of Precipitation, MM = Missing Value Source: NWS Daily Summary

Daily Weather History Graph

Daily Weather History Graph

Search for Another Location

Airport:

Trip Planner

Search our weather history database for the weather conditions in past years. The results will help you decide how hot, cold, wet, or windy it might be!

Date:

Astronomy

Aug. 25, 2013 Rise Set
Actual Time 6:12 AM PDT 7:15 PM PDT
Civil Twilight 5:47 AM PDT 7:41 PM PDT
Nautical Twilight 5:17 AM PDT 8:11 PM PDT
Astronomical Twilight 4:46 AM PDT 8:42 PM PDT
Moon 10:10 PM PDT (8/25) 10:59 AM PDT (8/25)
Length of Visible Light 13h 53m
Length of Day
13h 02m
Waning Gibbous, 75% of the Moon is Illuminated
Aug 25
Waning Gibbous
Aug 28
Last Quarter
Sep 5
New
Sep 12
First Quarter
Sep 19
Full

Hourly Weather History & Observations

Time (PDT) Temp. Heat Index Dew Point Humidity Pressure Visibility Wind Dir Wind Speed Gust Speed Precip Events Conditions
12:56 AM 77.0 °F - 68.0 °F 74% 29.86 in 10.0 mi NNE 4.6 mph - N/A   Clear
1:56 AM 77.0 °F - 68.0 °F 74% 29.87 in 10.0 mi ENE 3.5 mph - N/A   Clear
2:56 AM 77.0 °F - 70.0 °F 79% 29.88 in 10.0 mi South 6.9 mph - N/A   Clear
3:56 AM 75.9 °F - 70.0 °F 82% 29.88 in 10.0 mi South 5.8 mph - N/A   Partly Cloudy
4:56 AM 77.0 °F - 70.0 °F 79% 29.89 in 10.0 mi Calm Calm - N/A   Clear
5:56 AM 75.9 °F - 69.1 °F 79% 29.91 in 10.0 mi Calm Calm - N/A   Clear
6:56 AM 78.1 °F - 69.1 °F 74% 29.92 in 10.0 mi West 3.5 mph - N/A   Clear
7:56 AM 81.0 °F 84.1 °F 69.1 °F 67% 29.93 in 10.0 mi West 3.5 mph - N/A   Clear
8:56 AM 82.9 °F 87.5 °F 71.1 °F 67% 29.94 in 9.0 mi SE 3.5 mph - N/A   Clear
9:56 AM 84.0 °F 89.6 °F 72.0 °F 67% 29.95 in 10.0 mi Calm Calm - N/A   Overcast
10:56 AM 87.1 °F 93.6 °F 72.0 °F 61% 29.95 in 10.0 mi Calm Calm - N/A   Mostly Cloudy
11:56 AM 87.1 °F 94.5 °F 73.0 °F 63% 29.94 in 10.0 mi SSE 5.8 mph - N/A   Scattered Clouds
12:24 PM 75.9 °F - 71.1 °F 85% 29.91 in 1.8 mi SE 28.8 mph 34.5 mph 0.00 in Rain Heavy Rain
12:35 PM 75.0 °F - 71.1 °F 87% 29.91 in 0.5 mi SSW 18.4 mph 28.8 mph N/A Rain Heavy Rain
12:44 PM 75.9 °F - 70.0 °F 82% 29.89 in 1.0 mi Variable 3.5 mph - N/A Rain Rain
12:47 PM 77.0 °F - 70.0 °F 79% 29.89 in 2.5 mi West 3.5 mph - N/A Rain Light Rain
12:54 PM 75.2 °F - 71.6 °F 89% 29.89 in 9.0 mi West 5.8 mph - N/A Rain Light Rain
12:56 PM 75.9 °F - 71.1 °F 85% 29.94 in 10.0 mi WNW 6.9 mph - N/A Rain Light Rain
1:56 PM 82.0 °F 87.4 °F 73.0 °F 74% 29.94 in 10.0 mi ESE 12.7 mph - N/A   Partly Cloudy
2:56 PM 80.1 °F 84.2 °F 73.0 °F 79% 29.92 in 10.0 mi SE 9.2 mph - N/A   Clear
3:56 PM 80.1 °F 84.5 °F 73.9 °F 81% 29.91 in 10.0 mi East 5.8 mph - N/A   Partly Cloudy
4:56 PM 82.0 °F 87.4 °F 73.0 °F 74% 29.90 in 10.0 mi Variable 3.5 mph - N/A   Partly Cloudy
5:56 PM 82.0 °F 87.9 °F 73.9 °F 76% 29.90 in 10.0 mi North 4.6 mph - N/A   Clear
6:56 PM 82.0 °F 89.4 °F 75.9 °F 82% 29.93 in 10.0 mi North 6.9 mph - N/A   Mostly Cloudy
7:56 PM 81.0 °F 86.2 °F 73.9 °F 79% 29.94 in 10.0 mi NNW 6.9 mph - N/A   Partly Cloudy
8:56 PM 80.1 °F 84.2 °F 73.0 °F 79% 29.93 in 10.0 mi NNW 8.1 mph - N/A   Scattered Clouds
9:56 PM 79.0 °F - 73.9 °F 84% 29.95 in 10.0 mi ENE 3.5 mph - N/A   Partly Cloudy
10:56 PM 78.1 °F - 72.0 °F 81% 29.95 in 10.0 mi North 6.9 mph - N/A   Clear
11:56 PM 78.1 °F - 73.0 °F 84% 29.95 in 10.0 mi North 5.8 mph - N/A   Partly Cloudy